Location: Champseau
(45.8333°N, 1.7667°E)
Time: 05:46:49
(UTC+00:00)

Cosmos 2297 Rocket - Pass Details

Date: 18 April 2021
Orbit: 838 x 845 km, 71.0° (Epoch: 15 May)

Event Time Altitude Azimuth Distance (km) Brightness Sun altitude
Exits shadow 20:02:10 17° 139° (SE) 1,989 3.5 -13.2°
Maximum altitude 20:04:48 24° 102° (ESE) 1,679 3.2 -13.6°
Drops below altitude 10° 20:09:12 10° 50° (NE) 2,466 4.5 -14.3°
Sets 20:12:04 0° 37° (NE) 3,407 5.3 -14.7°
